Location: *
(38.3914°N, 75.0697°W)
Time: 02:39:58
(UTC+00:00)

Lacrosse 5 - Pass Details

Date: 17 February 2020
Orbit: 715 x 724 km, 57.0° (Epoch: 21 March)

Event Time Altitude Azimuth Distance (km) Brightness Sun altitude
Exits shadow 11:15:27 - 313° (NW) 2,751 4.4 -7.2°
Reaches altitude 10° 11:16:52 10° 311° (NW) 2,208 3.9 -7.0°
Maximum altitude 11:21:52 60° 232° (SW) 824 2.0 -6.0°
Drops below altitude 10° 11:26:51 10° 153° (SSE) 2,201 5.0 -5.1°
Sets 11:29:15 0° 150° (SSE) 3,119 5.8 -4.6°
